Regional Weather Roundup
Issued by NWS

Home | Current Version | Previous Version | Text Only | Print | Product List | Glossary On
Versions: 1 2 3 4 5 6 7 8 9 10 11 12 13 14 15 16 17 18 19 20 21 22 23 24 25 26 27 28 29 30 31 32 33 34 35 36 37 38 39 40 41 42 43 44 45 46 47 48 49 50
000
ASUS45 KBOI 081810
RWRID

IDAHO REGIONAL WEATHER ROUNDUP
NATIONAL WEATHER SERVICE BOISE ID
1100 AM MST MON FEB 08 2016

NOTE: "FAIR" INDICATES FEW OR NO CLOUDS BELOW 12000 FEET
WITH NO SIGNIFICANT WEATHER AND/OR OBSTRUCTIONS TO VISIBILITY

IDZ012-014-081900-
SOUTHWEST IDAHO


CITY           SKY/WX    TMP DP  RH WIND       PRES   REMARKS
BOISE          SUNNY     39  32  76 S13       30.72R WCI  31
CALDWELL       SUNNY     38  31  76 SE12      30.74S WCI  30
MOUNTAIN HOME  CLOUDY    33  33 100 E16       30.74R WCI  23
$$

IDZ016-017-081900-
SOUTHCENTRAL IDAHO


CITY           SKY/WX    TMP DP  RH WIND       PRES   REMARKS
BURLEY         CLOUDY    28  27  96 E12       30.71R FOG     WCI  18
JEROME         CLOUDY    27  25  92 NE21G28   30.71R FOG     WCI  13
TWIN FALLS     PTSUNNY   31  28  89 E10       30.71R WCI  22
$$

IDZ019>023-081900-
SOUTHEAST IDAHO


CITY           SKY/WX    TMP DP  RH WIND       PRES   REMARKS
IDAHO FALLS    CLOUDY    24  22  91 N7        30.73F FOG     WCI  16
POCATELLO      CLOUDY    26  24  92 NE8       30.74S WCI  18
REXBURG        CLOUDY    25  24  96 CALM      30.73R
$$

IDZ006-010-011-018-031-032-081900-
CENTRAL IDAHO MOUNTAINS


CITY           SKY/WX    TMP DP  RH WIND       PRES   REMARKS
MCCALL         MOSUNNY   24  21  88 CALM      30.65S
HAILEY         MOSUNNY   28  19  69 CALM      30.70R
STANLEY          N/A     15   9  76 CALM      30.72S
SALMON         CLOUDY    27  19  74 CALM      30.74S
CHALLIS        MOSUNNY   16  10  77 NE3       30.72S
$$

IDZ002-004-006-007-026-081900-
NORTHERN IDAHO


CITY           SKY/WX    TMP DP  RH WIND       PRES   REMARKS
LEWISTON       MOSUNNY   44  33  65 E8        30.62F
LOWELL           N/A     39  33  79 N7        30.69F WCI  34
COEUR D`ALENE  MOSUNNY   39  30  70 NE10      30.61S WCI  32
MULLAN PASS    MOSUNNY   37  28  70 SW7       30.57R WCI  32
$$



USA.gov is the U.S. government's official web portal to all federal, state and local government web resources and services.